TimeCDT,TemperatureF,Dew PointF,Humidity,Sea Level PressureIn,VisibilityMPH,Wind Direction,Wind SpeedMPH,Gust SpeedMPH,PrecipitationIn,Events,Conditions,WindDirDegrees,DateUTC
12:53 AM,77.0,71.1,82,30.01,10.0,SSE,6.9,-,N/A,,Clear,150,2013-07-08 05:53:00
1:53 AM,75.9,70.0,82,30.01,10.0,SSE,4.6,-,N/A,,Clear,150,2013-07-08 06:53:00
2:53 AM,75.0,70.0,84,30.02,10.0,SSE,4.6,-,N/A,,Clear,160,2013-07-08 07:53:00
3:53 AM,73.9,70.0,87,30.04,10.0,SSE,4.6,-,N/A,,Clear,160,2013-07-08 08:53:00
4:53 AM,73.9,70.0,87,30.05,10.0,SSE,5.8,-,N/A,,Scattered Clouds,160,2013-07-08 09:53:00
5:53 AM,73.9,70.0,87,30.06,10.0,SSE,6.9,-,N/A,,Clear,160,2013-07-08 10:53:00
6:53 AM,73.9,70.0,87,30.08,10.0,South,6.9,-,N/A,,Clear,170,2013-07-08 11:53:00
7:53 AM,77.0,71.1,82,30.10,10.0,SSE,6.9,-,N/A,,Clear,160,2013-07-08 12:53:00
8:15 AM,78.8,71.6,78,30.12,10.0,South,8.1,-,N/A,,Mostly Cloudy,180,2013-07-08 13:15:00
8:45 AM,80.6,71.6,74,30.13,10.0,South,9.2,-,N/A,,Scattered Clouds,170,2013-07-08 13:45:00
8:53 AM,81.0,71.1,72,30.11,10.0,South,10.4,-,N/A,,Partly Cloudy,190,2013-07-08 13:53:00
9:31 AM,82.4,71.6,70,30.13,10.0,South,11.5,17.3,N/A,,Mostly Cloudy,180,2013-07-08 14:31:00
9:53 AM,84.0,70.0,63,30.11,10.0,South,11.5,-,N/A,,Scattered Clouds,190,2013-07-08 14:53:00
10:53 AM,84.0,70.0,63,30.11,10.0,SSW,9.2,-,N/A,,Scattered Clouds,210,2013-07-08 15:53:00
11:53 AM,87.1,69.1,55,30.11,10.0,SSW,9.2,-,N/A,,Mostly Cloudy,200,2013-07-08 16:53:00
12:53 PM,90.0,70.0,52,30.09,10.0,South,10.4,-,N/A,,Scattered Clouds,190,2013-07-08 17:53:00
1:53 PM,87.1,70.0,57,30.09,10.0,South,11.5,-,N/A,,Overcast,190,2013-07-08 18:53:00
2:53 PM,90.0,68.0,48,30.07,10.0,SSE,9.2,-,N/A,,Mostly Cloudy,160,2013-07-08 19:53:00
3:53 PM,89.1,68.0,50,30.06,10.0,SSE,11.5,-,N/A,,Overcast,150,2013-07-08 20:53:00
4:53 PM,89.1,70.0,53,30.05,10.0,SSE,8.1,-,N/A,,Mostly Cloudy,160,2013-07-08 21:53:00
5:53 PM,90.0,70.0,52,30.03,10.0,SE,4.6,-,N/A,,Mostly Cloudy,140,2013-07-08 22:53:00
6:53 PM,90.0,69.1,50,30.02,10.0,South,9.2,-,0.01,,Scattered Clouds,170,2013-07-08 23:53:00
7:53 PM,89.1,68.0,50,30.03,10.0,South,9.2,-,N/A,,Clear,180,2013-07-09 00:53:00
8:53 PM,84.9,66.9,55,30.04,10.0,South,6.9,-,N/A,,Clear,170,2013-07-09 01:53:00
9:53 PM,82.9,68.0,60,30.06,10.0,SSE,8.1,-,N/A,,Clear,160,2013-07-09 02:53:00
10:53 PM,82.9,69.1,63,30.09,10.0,South,9.2,-,N/A,,Clear,180,2013-07-09 03:53:00
11:53 PM,80.1,68.0,67,30.09,10.0,South,9.2,-,N/A,,Clear,190,2013-07-09 04:53:00